TimeCST,TemperatureF,Dew PointF,Humidity,Sea Level PressureIn,VisibilityMPH,Wind Direction,Wind SpeedMPH,Gust SpeedMPH,PrecipitationIn,Events,Conditions,WindDirDegrees,DateUTC
12:15 AM,26.6,14.0,59,30.38,10.0,West,8.1,-,N/A,,Clear,270,2013-11-23 06:15:00
12:35 AM,26.6,14.0,59,30.38,10.0,West,8.1,-,N/A,,Clear,270,2013-11-23 06:35:00
12:55 AM,26.6,14.0,59,30.38,10.0,West,6.9,-,N/A,,Clear,260,2013-11-23 06:55:00
1:15 AM,24.8,14.0,64,30.38,10.0,West,6.9,-,N/A,,Clear,260,2013-11-23 07:15:00
1:35 AM,24.8,14.0,64,30.39,10.0,West,6.9,-,N/A,,Clear,270,2013-11-23 07:35:00
1:55 AM,26.6,14.0,59,30.40,10.0,West,9.2,-,N/A,,Scattered Clouds,280,2013-11-23 07:55:00
2:15 AM,26.6,14.0,59,30.40,10.0,West,10.4,-,N/A,,Overcast,280,2013-11-23 08:15:00
2:35 AM,26.6,14.0,59,30.40,10.0,WNW,11.5,-,N/A,,Scattered Clouds,290,2013-11-23 08:35:00
2:55 AM,24.8,14.0,64,30.40,10.0,WNW,10.4,-,N/A,,Scattered Clouds,290,2013-11-23 08:55:00
3:15 AM,24.8,14.0,64,30.40,10.0,NW,11.5,-,N/A,,Scattered Clouds,310,2013-11-23 09:15:00
3:35 AM,23.0,14.0,68,30.40,10.0,NW,19.6,23.0,N/A,,Clear,320,2013-11-23 09:35:00
3:55 AM,23.0,12.2,63,30.41,10.0,NW,19.6,24.2,N/A,,Scattered Clouds,320,2013-11-23 09:55:00
4:15 AM,23.0,12.2,63,30.42,10.0,NNW,17.3,21.9,N/A,,Mostly Cloudy,330,2013-11-23 10:15:00
4:35 AM,23.0,12.2,63,30.43,10.0,NW,18.4,25.3,N/A,,Mostly Cloudy,320,2013-11-23 10:35:00
4:55 AM,23.0,10.4,59,30.44,10.0,NW,15.0,24.2,N/A,,Clear,320,2013-11-23 10:55:00
5:15 AM,21.2,10.4,63,30.45,10.0,NW,15.0,20.7,N/A,,Clear,320,2013-11-23 11:15:00
5:35 AM,21.2,10.4,63,30.46,10.0,NW,13.8,17.3,N/A,,Clear,310,2013-11-23 11:35:00
5:55 AM,21.2,8.6,58,30.47,10.0,NW,18.4,26.5,N/A,,Clear,320,2013-11-23 11:55:00
6:15 AM,19.4,8.6,63,30.47,10.0,NW,13.8,21.9,N/A,,Scattered Clouds,310,2013-11-23 12:15:00
6:35 AM,19.4,8.6,63,30.48,10.0,NW,18.4,21.9,N/A,,Scattered Clouds,320,2013-11-23 12:35:00
6:45 AM,17.6,8.6,68,30.49,10.0,NW,18.4,24.2,N/A,,Scattered Clouds,320,2013-11-23 12:45:00
7:45 AM,17.6,5.0,58,30.51,10.0,NW,20.7,27.6,N/A,,Scattered Clouds,320,2013-11-23 13:45:00
8:45 AM,17.6,5.0,58,30.54,10.0,NNW,20.7,27.6,N/A,,Clear,330,2013-11-23 14:45:00
9:45 AM,19.4,6.8,58,30.57,10.0,NW,20.7,27.6,N/A,,Mostly Cloudy,320,2013-11-23 15:45:00
10:45 AM,17.6,3.2,53,30.58,10.0,NNW,18.4,27.6,N/A,,Mostly Cloudy,330,2013-11-23 16:45:00
11:45 AM,21.2,3.2,46,30.57,10.0,NW,23.0,32.2,N/A,,Scattered Clouds,320,2013-11-23 17:45:00
12:45 PM,19.4,1.4,46,30.58,10.0,NW,25.3,32.2,N/A,,Scattered Clouds,310,2013-11-23 18:45:00
1:45 PM,19.4,-0.4,42,30.59,10.0,NW,19.6,25.3,N/A,,Scattered Clouds,320,2013-11-23 19:45:00
2:45 PM,19.4,-0.4,42,30.60,10.0,NW,17.3,27.6,N/A,,Mostly Cloudy,310,2013-11-23 20:45:00
3:45 PM,19.4,-0.4,42,30.61,10.0,NW,13.8,27.6,N/A,,Scattered Clouds,310,2013-11-23 21:45:00
4:45 PM,17.6,-0.4,45,30.63,10.0,NW,15.0,21.9,N/A,,Scattered Clouds,310,2013-11-23 22:45:00
5:45 PM,17.6,-0.4,45,30.65,10.0,NW,12.7,-,N/A,,Clear,320,2013-11-23 23:45:00
8:15 PM,14.0,1.4,57,30.66,10.0,NW,9.2,-,N/A,,Clear,310,2013-11-24 02:15:00
8:35 PM,14.0,1.4,57,30.67,10.0,WNW,8.1,-,N/A,,Clear,300,2013-11-24 02:35:00
8:55 PM,14.0,1.4,57,30.67,10.0,WNW,9.2,-,N/A,,Clear,300,2013-11-24 02:55:00
9:15 PM,14.0,-0.4,53,30.68,10.0,NW,10.4,-,N/A,,Clear,310,2013-11-24 03:15:00
9:35 PM,14.0,-0.4,53,30.68,10.0,WNW,10.4,-,N/A,,Clear,300,2013-11-24 03:35:00
9:55 PM,14.0,1.4,57,30.68,10.0,WNW,10.4,-,N/A,,Clear,300,2013-11-24 03:55:00
10:15 PM,14.0,1.4,57,30.68,10.0,WNW,8.1,-,N/A,,Clear,290,2013-11-24 04:15:00
10:35 PM,12.2,3.2,67,30.68,10.0,West,8.1,-,N/A,,Clear,280,2013-11-24 04:35:00
10:55 PM,12.2,1.4,62,30.69,10.0,WNW,8.1,-,N/A,,Clear,290,2013-11-24 04:55:00
11:15 PM,12.2,3.2,67,30.69,10.0,WNW,5.8,-,N/A,,Clear,290,2013-11-24 05:15:00
11:35 PM,12.2,1.4,62,30.68,10.0,WNW,6.9,-,N/A,,Clear,290,2013-11-24 05:35:00
11:55 PM,12.2,3.2,67,30.68,10.0,West,6.9,-,N/A,,Clear,280,2013-11-24 05:55:00